Content
SEND FEEDBACK

Daily
Averages
Monthly
Summary
United States of America

INARAJAN, GUAM


Home > North America > United States > Guam
Elevation: 280 feet     Latitude: 13 18N     Longitude: 144 44E

WEATHER
 
SELECT A DAY
Number of Records: 350,199;   Date Range: 1/1/95 - 9/29/14
 
SHARE

PRINT THIS DATA

[ ← Previous Day ]
WEATHER ALMANAC - MARCH 19, 2013
[ Next Day → ]
[ °C ]   °F
Weather ElementAverageHighLow
Temperature78.4 °F83.5 °F (3:55 pm)75.2 °F (12:24 am)
Dewpoint75.4 °F77 °F (4:41 am)71.8 °F (8:55 pm)
Humidity90.6 %100 % (4:41 am)74 % (2:23 pm)
Barometer29.87 in29.92 in (10:03 am)29.82 in (3:18 am)
Wind Speed12.5 mph21.9 mph (12:17 am)
Wind Gust29.9 mph (12:17 am)
Weather ElementAverage
Visibility8.8 mi
Wind DirectionENE (84.2 °)

Weather ElementTotal
Precipitation---
Cooling Degree Days14.4 (Base 65)
Growing Degree Days29.4 (Base 50)
Averaged from 137 records on March 19, 2013
WEATHER CONDITIONS BREAKOUT
WIND DIRECTION BREAKOUT
WEATHER BY HOUR - MARCH 19, 2013
[ °C ]   °F
Local TimeTemperatureDewpointHumidityBarometerVisibilityWind DirectionWind SpeedGust SpeedPrecipitationEventsConditions
12:11 AM77.0 °F75.2 °F94 %29.86 in10.0 miENE (70°)18.4 mphMostly Cloudy
12:17 AM77.0 °F75.2 °F94 %29.87 in3.0 miEast (80°)21.9 mph29.9 mphRainHeavy Rain
12:19 AM77.0 °F73.4 °F89 %29.87 in2.5 miEast (80°)18.4 mph29.9 mphRainLight Rain
12:24 AM75.2 °F73.4 °F94 %29.86 in2.0 miENE (70°)18.4 mph29.9 mphRainLight Rain
12:25 AM75.2 °F73.4 °F94 %29.86 in2.5 miENE (70°)20.7 mph29.9 mphRainLight Rain
12:26 AM75.2 °F73.4 °F94 %29.86 in3.0 miENE (70°)21.9 mph25.3 mphRainLight Rain
12:33 AM75.2 °F73.4 °F94 %29.86 in8.0 miEast (80°)18.4 mph25.3 mphOvercast
12:41 AM75.2 °F73.4 °F94 %29.86 in8.0 miENE (60°)18.4 mphLight Drizzle
12:47 AM75.2 °F73.4 °F94 %29.86 in9.0 miENE (60°)15.0 mphLight Drizzle
12:50 AM75.2 °F73.4 °F94 %29.85 in10.0 miENE (60°)13.8 mphOvercast
12:55 AM76.3 °F74.5 °F94 %29.85 in10.0 miENE (70°)15.0 mphOvercast
1:01 AM77.0 °F75.2 °F94 %29.85 in9.0 miENE (70°)15.0 mphRainLight Rain
1:11 AM77.0 °F75.2 °F94 %29.85 in10.0 miENE (70°)13.8 mphMostly Cloudy
1:13 AM77.0 °F75.2 °F94 %29.85 in10.0 miENE (70°)11.5 mphMostly Cloudy
1:28 AM77.0 °F75.2 °F94 %29.84 in8.0 miEast (90°)20.7 mph26.5 mphMostly Cloudy
1:29 AM77.0 °F75.2 °F94 %29.84 in6.0 miEast (100°)21.9 mph26.5 mphRainLight Rain
1:39 AM75.2 °F73.4 °F94 %29.85 in6.0 miEast (100°)17.3 mph28.8 mphRainLight Rain
1:40 AM75.2 °F73.4 °F94 %29.85 in6.0 miEast (100°)15.0 mphRainLight Rain
1:44 AM75.2 °F73.4 °F94 %29.85 in4.0 miEast (90°)15.0 mphRainLight Rain
1:45 AM75.2 °F73.4 °F94 %29.85 in4.0 miEast (90°)15.0 mphRainLight Rain
1:47 AM75.2 °F73.4 °F94 %29.85 in3.0 miEast (90°)12.7 mphRainRain
1:48 AM75.2 °F73.4 °F94 %29.85 in3.0 miEast (90°)13.8 mphRainRain
1:55 AM75.2 °F73.8 °F95 %29.84 in5.0 miEast (90°)12.7 mph0.00 inRainLight Rain
2:06 AM75.2 °F73.4 °F94 %29.84 in8.0 miEast (80°)11.5 mphRainLight Rain
2:19 AM77.0 °F75.2 °F94 %29.83 in10.0 miEast (80°)13.8 mph21.9 mphRainLight Rain
2:25 AM77.0 °F75.2 °F94 %29.83 in10.0 miEast (80°)12.7 mph21.9 mphMostly Cloudy
2:31 AM77.0 °F75.2 °F94 %29.83 in10.0 miEast (90°)13.8 mphOvercast
2:55 AM77.0 °F75.2 °F94 %29.83 in10.0 miEast (100°)11.5 mphMostly Cloudy
2:56 AM77.0 °F75.2 °F94 %29.83 in10.0 miEast (90°)12.7 mphMostly Cloudy
2:57 AM77.0 °F75.2 °F94 %29.83 in10.0 miEast (90°)12.7 mphMostly Cloudy
3:00 AM77.0 °F75.2 °F94 %29.83 in10.0 miEast (90°)16.1 mph19.6 mphMostly Cloudy
3:18 AM77.0 °F75.2 °F94 %29.82 in10.0 miEast (90°)15.0 mphMostly Cloudy
3:55 AM77.5 °F75.9 °F95 %29.82 in10.0 miEast (90°)12.7 mphMostly Cloudy
4:11 AM77.0 °F75.2 °F94 %29.82 in10.0 miEast (80°)17.3 mphOvercast
4:41 AM77.0 °F77.0 °F100 %29.82 in10.0 miENE (70°)15.0 mphMostly Cloudy
4:53 AM77.0 °F75.2 °F94 %29.82 in10.0 miEast (80°)16.1 mphMostly Cloudy
4:55 AM77.7 °F75.9 °F94 %29.82 in10.0 miEast (80°)13.8 mphOvercast
5:24 AM77.0 °F75.2 °F94 %29.83 in10.0 miEast (80°)10.4 mphMostly Cloudy
5:43 AM77.0 °F75.2 °F94 %29.84 in10.0 miEast (90°)13.8 mphScattered Clouds
5:50 AM77.0 °F75.2 °F94 %29.84 in10.0 miEast (90°)13.8 mphMostly Cloudy
5:51 AM77.0 °F75.2 °F94 %29.84 in10.0 miEast (90°)12.7 mphMostly Cloudy
5:55 AM77.9 °F75.9 °F94 %29.84 in10.0 miEast (100°)11.5 mphMostly Cloudy
5:56 AM77.0 °F75.2 °F94 %29.84 in10.0 miEast (90°)12.7 mphMostly Cloudy
6:03 AM77.0 °F75.2 °F94 %29.84 in10.0 miEast (90°)15.0 mphMostly Cloudy
6:44 AM77.0 °F75.2 °F94 %29.86 in10.0 miEast (90°)13.8 mphScattered Clouds
6:55 AM78.1 °F75.4 °F91 %29.87 in10.0 miEast (100°)11.5 mphScattered Clouds
7:13 AM78.8 °F75.2 °F89 %29.87 in10.0 miEast (90°)12.7 mphMostly Cloudy
7:20 AM78.8 °F75.2 °F89 %29.88 in10.0 miEast (90°)12.7 mphMostly Cloudy
7:22 AM78.8 °F75.2 °F89 %29.88 in10.0 miEast (90°)11.5 mphMostly Cloudy
7:26 AM78.8 °F75.2 °F89 %29.88 in10.0 miEast (90°)11.5 mphScattered Clouds
7:47 AM78.8 °F75.2 °F89 %29.88 in10.0 miEast (100°)12.7 mphMostly Cloudy
7:55 AM79.0 °F75.2 °F88 %29.89 in10.0 miEast (100°)13.8 mphMostly Cloudy
8:15 AM78.8 °F75.2 °F89 %29.89 in10.0 miEast (100°)11.5 mph21.9 mphScattered Clouds
8:38 AM80.6 °F75.2 °F84 %29.90 in10.0 miEast (90°)13.8 mphMostly Cloudy
8:55 AM80.1 °F76.1 °F88 %29.91 in10.0 miEast (100°)10.4 mphMostly Cloudy
9:53 AM82.4 °F77.0 °F84 %29.91 in10.0 miEast (100°)12.7 mphMostly Cloudy
9:55 AM82.0 °F76.6 °F84 %29.91 in10.0 miEast (100°)12.7 mphMostly Cloudy
9:57 AM82.4 °F77.0 °F84 %29.91 in10.0 miEast (100°)13.8 mphMostly Cloudy
10:00 AM82.4 °F77.0 °F84 %29.91 in10.0 miEast (100°)13.8 mphMostly Cloudy
10:03 AM82.4 °F77.0 °F84 %29.92 in10.0 miEast (100°)13.8 mphMostly Cloudy
10:05 AM82.4 °F77.0 °F84 %29.92 in10.0 miEast (90°)13.8 mphMostly Cloudy
10:07 AM82.4 °F77.0 °F84 %29.91 in10.0 miEast (100°)15.0 mphMostly Cloudy
10:13 AM82.4 °F75.2 °F79 %29.91 in10.0 miEast (100°)12.7 mphScattered Clouds
10:55 AM82.2 °F76.3 °F82 %29.90 in10.0 miEast (90°)11.5 mphScattered Clouds
11:09 AM82.4 °F77.0 °F84 %29.90 in10.0 miEast (100°)11.5 mphMostly Cloudy
11:55 AM82.2 °F76.3 °F82 %29.88 in10.0 miEast (100°)12.7 mphMostly Cloudy
11:57 AM82.4 °F77.0 °F84 %29.88 in10.0 miESE (110°)12.7 mphMostly Cloudy
11:59 AM82.4 °F77.0 °F84 %29.88 in10.0 miESE (110°)13.8 mphMostly Cloudy
12:04 PM82.4 °F77.0 °F84 %29.88 in10.0 miEast (100°)13.8 mphMostly Cloudy
12:50 PM82.4 °F77.0 °F84 %29.86 in10.0 miESE (120°)12.7 mphMostly Cloudy
12:55 PM83.1 °F76.8 °F81 %29.86 in10.0 miESE (120°)12.7 mphMostly Cloudy
12:56 PM82.4 °F77.0 °F84 %29.86 in10.0 miESE (120°)11.5 mphMostly Cloudy
1:04 PM82.4 °F77.0 °F84 %29.86 in10.0 miESE (120°)12.7 mphMostly Cloudy
1:07 PM82.4 °F77.0 °F84 %29.86 in10.0 miESE (110°)11.5 mphMostly Cloudy
1:14 PM82.4 °F77.0 °F84 %29.86 in10.0 miESE (120°)11.5 mphMostly Cloudy
1:38 PM82.4 °F77.0 °F84 %29.84 in10.0 miESE (110°)12.7 mphMostly Cloudy
1:42 PM82.4 °F77.0 °F84 %29.84 in10.0 miESE (110°)12.7 mphMostly Cloudy
1:55 PM82.2 °F76.3 °F82 %29.84 in10.0 miEast (100°)11.5 mphMostly Cloudy
2:23 PM82.4 °F73.4 °F74 %29.83 in10.0 miESE (110°)12.7 mphMostly Cloudy
2:28 PM82.4 °F73.4 °F74 %29.83 in10.0 miESE (110°)12.7 mphScattered Clouds
2:55 PM82.4 °F75.7 °F80 %29.83 in10.0 miEast (90°)11.5 mphPartly Cloudy
3:55 PM83.5 °F75.2 °F76 %29.82 in10.0 miEast (100°)10.4 mphScattered Clouds
4:39 PM80.6 °F75.2 °F84 %29.83 in10.0 miEast (90°)10.4 mphMostly Cloudy
4:55 PM80.6 °F76.3 °F87 %29.84 in10.0 miENE (70°)8.1 mphMostly Cloudy
4:57 PM80.6 °F77.0 °F89 %29.84 in10.0 miENE (60°)10.4 mphMostly Cloudy
5:05 PM80.6 °F77.0 °F89 %29.84 in10.0 miENE (70°)10.4 mphMostly Cloudy
5:08 PM80.6 °F77.0 °F89 %29.84 in10.0 miENE (70°)9.2 mphScattered Clouds
5:47 PM78.8 °F77.0 °F94 %29.86 in9.0 miENE (60°)12.7 mphMostly Cloudy
5:49 PM78.8 °F77.0 °F94 %29.86 in5.0 miENE (60°)11.5 mphRainLight Rain
5:52 PM78.8 °F77.0 °F94 %29.86 in2.5 miENE (70°)10.4 mph18.4 mphRainLight Rain
5:53 PM78.8 °F75.2 °F89 %29.86 in1.8 miENE (60°)5.8 mph18.4 mphRainHeavy Rain
5:55 PM78.3 °F74.7 °F89 %29.86 in1.5 miENE (70°)4.6 mph18.4 mph0.00 inRainHeavy Rain
6:00 PM78.8 °F75.2 °F89 %29.87 in1.8 miNE (40°)9.2 mph18.4 mphRainLight Rain
6:01 PM78.8 °F77.0 °F94 %29.87 in2.5 miNE (40°)9.2 mph18.4 mphRainLight Rain
6:02 PM78.8 °F77.0 °F94 %29.87 in3.0 miNE (40°)9.2 mphRainLight Rain
6:08 PM78.8 °F77.0 °F94 %29.87 in10.0 miNE (50°)9.2 mphOvercast
6:11 PM78.8 °F77.0 °F94 %29.87 in10.0 miNE (50°)9.2 mphMostly Cloudy
6:18 PM78.8 °F77.0 °F94 %29.88 in10.0 miENE (70°)8.1 mphMostly Cloudy
6:19 PM78.8 °F77.0 °F94 %29.88 in10.0 miENE (60°)9.2 mphMostly Cloudy
6:20 PM78.8 °F77.0 °F94 %29.88 in10.0 miENE (60°)8.1 mphMostly Cloudy
6:22 PM78.8 °F77.0 °F94 %29.88 in10.0 miENE (70°)8.1 mphMostly Cloudy
6:28 PM78.8 °F77.0 °F94 %29.88 in10.0 miENE (70°)9.2 mphMostly Cloudy
6:37 PM78.8 °F77.0 °F94 %29.88 in10.0 miEast (80°)9.2 mphMostly Cloudy
6:38 PM78.8 °F77.0 °F94 %29.88 in10.0 miEast (80°)10.4 mphMostly Cloudy
6:40 PM78.8 °F77.0 °F94 %29.88 in10.0 miEast (80°)9.2 mphMostly Cloudy
6:51 PM78.8 °F77.0 °F94 %29.88 in10.0 miEast (80°)8.1 mphMostly Cloudy
6:55 PM78.6 °F76.6 °F94 %29.88 in10.0 miEast (80°)4.6 mph0.00 inMostly Cloudy
6:59 PM78.8 °F77.0 °F94 %29.88 in10.0 miEast (90°)8.1 mphOvercast
7:08 PM77.0 °F75.2 °F94 %29.88 in10.0 miENE (70°)12.7 mphRainLight Rain
7:09 PM77.0 °F73.4 °F89 %29.88 in9.0 miENE (60°)12.7 mphRainLight Rain
7:12 PM77.0 °F73.4 °F89 %29.88 in7.0 miEast (80°)8.1 mphRainLight Rain
7:21 PM77.0 °F73.4 °F89 %29.89 in9.0 miENE (60°)9.2 mphRainLight Rain
7:23 PM77.0 °F73.4 °F89 %29.89 in9.0 miENE (60°)9.2 mphRainLight Rain
7:36 PM77.0 °F75.2 °F94 %29.89 in10.0 miENE (70°)10.4 mphRainLight Rain
7:40 PM77.0 °F75.2 °F94 %29.89 in10.0 miEast (80°)10.4 mphScattered Clouds
7:55 PM77.2 °F75.2 °F94 %29.90 in10.0 miENE (70°)15.0 mph0.00 inScattered Clouds
7:57 PM77.0 °F75.2 °F94 %29.90 in10.0 miEast (80°)16.1 mphRainLight Rain
8:20 PM77.0 °F73.4 °F89 %29.89 in10.0 miEast (80°)9.2 mphRainLight Rain
8:22 PM77.0 °F73.4 °F89 %29.89 in10.0 miEast (80°)10.4 mphMostly Cloudy
8:24 PM77.0 °F75.2 °F94 %29.89 in8.0 miEast (80°)11.5 mphLight Drizzle
8:34 PM77.0 °F73.4 °F89 %29.90 in6.0 miESE (110°)11.5 mphRainLight Rain
8:37 PM75.2 °F73.4 °F94 %29.90 in10.0 miEast (100°)10.4 mphScattered Clouds
8:55 PM75.7 °F71.8 °F87 %29.91 in10.0 miEast (100°)11.5 mph0.00 inPartly Cloudy
9:54 PM77.0 °F75.2 °F94 %29.91 in10.0 miEast (80°)9.2 mphMostly Cloudy
9:55 PM77.7 °F75.4 °F92 %29.91 in9.0 miEast (90°)10.4 mphMostly Cloudy
9:57 PM77.0 °F75.2 °F94 %29.91 in6.0 miEast (90°)10.4 mphRainRain
10:06 PM77.0 °F75.2 °F94 %29.91 in7.0 miEast (90°)12.7 mphRainLight Rain
10:07 PM77.0 °F75.2 °F94 %29.91 in9.0 miEast (80°)12.7 mphRainLight Rain
10:08 PM77.0 °F75.2 °F94 %29.91 in10.0 miEast (90°)11.5 mphMostly Cloudy
10:12 PM77.0 °F75.2 °F94 %29.91 in10.0 miEast (80°)13.8 mphMostly Cloudy
10:16 PM77.0 °F75.2 °F94 %29.91 in10.0 miENE (70°)12.7 mphMostly Cloudy
10:17 PM77.0 °F75.2 °F94 %29.92 in10.0 miENE (70°)12.7 mphMostly Cloudy
10:20 PM77.0 °F75.2 °F94 %29.92 in10.0 miENE (70°)10.4 mphScattered Clouds
10:31 PM77.0 °F75.2 °F94 %29.91 in10.0 miENE (70°)11.5 mphRainLight Rain
10:45 PM77.0 °F75.2 °F94 %29.91 in10.0 miEast (80°)12.7 mphScattered Clouds
10:55 PM77.5 °F75.4 °F93 %29.91 in10.0 miENE (70°)13.8 mph0.00 inMostly Cloudy
11:55 PM77.7 °F75.9 °F94 %29.90 in10.0 miEast (90°)11.5 mphScattered Clouds
Hourly data recorded from PGUA, located miles away from Inarajan, Guam







STORIES FROM OUR PARTNERS